Tracking 19817 objects as of 18-Aug-2019
HD Live streaming from Space Station
objects crossing your sky now

COSMOS 2251 DEB

Track COSMOS 2251 DEB now!
10-day predictions


NORAD ID: 34912
Int'l Code: 1993-036ADH
Perigee: 617.8 km
Apogee: 703.7 km
Inclination: 74.2 °
Period: 97.8 minutes
Semi major axis: 7031 km
RCS: 0.0029 m2 (small)
Launch date: June 16, 1993
Source: Commonwealth of Independent States (former USSR) (CIS)
Launch site: PLESETSK MISSILE AND SPACE COMPLEX (PKMTR)

Note: This is SATELLITE DEBRIS
aabbcc
Your satellite tracking list
Your tracking list is empty




NASA's NSSDC Master Catalog

Two Line Element Set (TLE):
1 34912U 93036ADH 19228.55219078 +.00000481 +00000-0 +78997-4 0  9996
2 34912 074.1649 278.1460 0061084 117.0575 243.6849 14.72334100554729
Source of the keplerian elements: AFSPC